Miscellaneous Local Product
Issued by NWS Hastings, NE

Home | Current Version | Previous Version | Graphics & Text | Print | Product List | Glossary On
Versions: 1 2 3 4 5 6 7 8 9 10 11 12 13 14 15 16 17 18 19 20 21 22 23 24 25 26 27 28 29 30 31 32 33 34 35 36 37 38 39 40 41 42 43 44 45 46 47 48 49 50
300
AXUS43 KGID 280602
MISGRI

GID CWA HOURLY WEATHER ROUNDUP
NATIONAL WEATHER SERVICE HASTINGS NE
100 AM CDT FRI APR 28 2017

NOTE: "FAIR" INDICATES FEW OR NO CLOUDS BELOW 12,000 FEET WITH NO
SIGNIFICANT WEATHER AND/OR OBSTRUCTIONS TO VISIBILITY.

...SOUTH CENTRAL NEBRASKA...

CITY           SKY/WX    TMP DP  RH WIND       PRES   REMARKS
GRAND ISLAND   CLOUDY    46  44  93 E7        29.73S
HASTINGS       CLOUDY    46  42  86 E10       29.71S
KEARNEY        CLOUDY    46  39  76 E13       29.70F
ORD            CLOUDY    45  39  79 E6        29.73R
YORK           CLOUDY    48  43  81 E8        29.74S
AURORA         CLOUDY    46  43  86 E7        29.72S
LEXINGTON      LGT RAIN  45  42  89 E10       29.68S
HOLDREGE       CLOUDY    45  41  88 E16       29.67S
HEBRON         LGT RAIN  47  45  90 E7        29.72F

...NEBRASKA PANHANDLE...

CITY           SKY/WX    TMP DP  RH WIND       PRES   REMARKS
CHADRON        RAIN      40  39  97 NE12      29.67S FOG     WCI  33
ALLIANCE       LGT RAIN  41  39  93 SE13      29.63S
SCOTTSBLUFF    CLOUDY    42  39  89 E9        29.62S
SIDNEY         CLOUDY    39  37  92 VRB3      29.63R

...WESTERN AND NORTH CENTRAL NEBRASKA...

CITY           SKY/WX    TMP DP  RH WIND       PRES   REMARKS
VALENTINE      CLOUDY    44  35  70 E10       29.73F
AINSWORTH      CLOUDY    42  38  86 E10       29.74R
ONEILL         CLOUDY    41  32  69 E12       29.78R
BROKEN BOW     CLOUDY    45  40  82 E9        29.70S
IMPERIAL       RAIN      42  40  92 N6        29.63R
NORTH PLATTE   LGT RAIN  44  43  96 E10       29.66F
MCCOOK         LGT RAIN  44  43  96 E21       29.60F

...EASTERN NEBRASKA...

CITY           SKY/WX    TMP DP  RH WIND       PRES   REMARKS
NORFOLK        CLEAR     40  32  73 E6        29.77S
SO SIOUX CITY  CLEAR     39  33  79 E8        29.82R WCI  33
TEKAMAH        CLEAR     40  33  76 N8        29.80R WCI  34
COLUMBUS       CLOUDY    46  34  61 E9        29.77S
ALBION         MOCLDY    44  35  70 E8        29.76S
OMAHA EPPLEY   CLOUDY    48  35  60 VRB3      29.79R
MILLARD        CLOUDY    53  38  55 E5        29.78R
LINCOLN        CLOUDY    50  43  77 NE3       29.77S
NEBRASKA CITY  CLOUDY    50  43  77 CALM      29.77R
BEATRICE       DRIZZLE   49  47  92 SE6       29.76R
FALLS CITY     CLOUDY    49  47  93 SE5       29.77R

...NORTHERN KANSAS...

CITY           SKY/WX    TMP DP  RH WIND       PRES   REMARKS
GOODLAND       CLOUDY    42  39  89 W12       29.61R
HILL CITY      LGT RAIN  46  45  96 E17G26    29.57F FOG
NORTON         RAIN      45  39  81 E10       29.63F
PHILLIPSBURG   TSTM      46  46 100 E9        29.67R
SMITH CENTER   RAIN      45  43  93 E21G28    29.64F
HAYS           LGT RAIN  48  45  89 E16       29.61F
RUSSELL        CLOUDY    48  44  86 E20G28    29.59F
CONCORDIA      LGT RAIN  47  46  97 E12       29.69F FOG
SALINA         LGT RAIN  51  47  86 E14       29.66S
TOPEKA         CLOUDY    52  48  86 E8        29.74R



USA.gov is the U.S. government's official web portal to all federal, state and local government web resources and services.